OSCAR 7 (AO-7) 1 07530U 74089B 26106.80566242 -.00000040 00000+0 40452-4 0 9994 2 07530 101.9942 119.4056 0011891 247.5514 296.5364 12.53697138352827 PHASE 3B (AO-10) 1 14129U 83058B 26102.81319713 -.00000295 00000+0 00000+0 0 9990 2 14129 25.8997 230.4827 6034279 97.6141 330.5213 2.05874162294146 UOSAT 2 (UO-11) 1 14781U 84021B 26106.46762199 .00000816 00000+0 88984-4 0 9990 2 14781 97.8007 72.7583 0008500 37.5864 322.5946 14.90633695247934 LUSAT (LO-19) 1 20442U 90005G 26106.57584662 .00000075 00000+0 43653-4 0 9990 2 20442 98.8899 126.6712 0012112 31.8972 328.2942 14.34103489893565 EYESAT A (AO-27) 1 22825U 93061C 26106.11685165 .00000043 00000+0 33459-4 0 9990 2 22825 98.6916 173.5417 0007242 284.1856 75.8522 14.30925227698127 ITAMSAT (IO-26) 1 22826U 93061D 26106.46424029 .00000057 00000+0 38404-4 0 9999 2 22826 98.6863 173.8003 0007741 263.9037 96.1264 14.31350601698480 RADIO ROSTO (RS15) 1 23439U 94085A 26106.83182648 -.00000051 00000+0 -25511-3 0 9996 2 23439 64.8195 42.4426 0154129 15.0148 345.5278 11.27583858288986 JAS-2 (FO-29) 1 24278U 96046B 26106.87008483 -.00000020 00000+0 18688-4 0 9998 2 24278 98.5316 324.1138 0348834 255.5235 100.6968 13.53271232464874 TECHSAT 1B (GO-32) 1 25397U 98043D 26106.74199182 .00000024 00000+0 30711-4 0 9997 2 25397 99.0059 97.9572 0002085 58.5198 301.6183 14.24416052442584 ISS (ZARYA) 1 25544U 98067A 26106.84451399 .00004242 00000+0 85733-4 0 9999 2 25544 51.6329 243.6903 0006573 315.5681 44.4780 15.48789484562249 PCSAT (NO-44) 1 26931U 01043C 26106.55514959 .00000058 00000+0 52474-4 0 9995 2 26931 67.0519 43.6767 0006654 264.3453 95.6890 14.31931581281624 SAUDISAT 1C (SO-50) 1 27607U 02058C 26106.85646821 .00000499 00000+0 77041-4 0 9996 2 27607 64.5523 318.7220 0075550 273.6270 85.6198 14.82910703255364 CUTE-1 (CO-55) 1 27844U 03031E 26106.78011330 .00000189 00000+0 10099-3 0 9999 2 27844 98.6764 116.1074 0009706 11.4859 348.6539 14.24296809182933 CUBESAT XI-IV (CO-57) 1 27848U 03031J 26106.52703389 .00000164 00000+0 91279-4 0 9990 2 27848 98.6796 115.6194 0010021 29.7735 330.4011 14.23587215182607 MOZHAETS 4 (RS22) 1 27939U 03042A 26106.83285541 .00000979 00000+0 15935-3 0 9990 2 27939 98.3460 289.4633 0012531 102.0145 21.2126 14.73356460206519 CUBESAT XI-V 1 28895U 05043F 26106.70384451 .00000865 00000+0 14455-3 0 9991 2 28895 98.2906 261.0661 0014850 44.9479 315.2927 14.72467493 92709 CUTE-1.7+APD II (CO-65) 1 32785U 08021C 26106.85123189 .00002677 00000+0 17417-3 0 9992 2 32785 97.8247 87.0364 0007452 230.0360 130.0214 15.08865657975940 SEEDS II (CO-66) 1 32791U 08021J 26106.72514752 .00011304 00000+0 38407-3 0 9994 2 32791 97.7525 101.7944 0004320 133.9152 226.2445 15.30647529977884 YUBILEINY (RS30) 1 32953U 08025A 26106.77414025 .00000008 00000+0 -14236-4 0 9990 2 32953 82.5070 33.6334 0020605 84.6292 275.7138 12.43177575812064 KKS-1 (KISEKI) 1 33499U 09002H 26106.79146485 .00000794 00000+0 10460-3 0 9991 2 33499 98.1190 28.2704 0009017 123.3438 236.8639 14.82962846927096 SWISSCUBE 1 35932U 09051B 26106.17986767 .00000619 00000+0 13234-3 0 9994 2 35932 98.4072 12.9838 0007892 52.0864 308.1049 14.62358739880094 BEESAT-1 1 35933U 09051C 26106.70510473 .00000522 00000+0 11495-3 0 9991 2 35933 98.4000 13.2810 0006498 63.9237 296.2631 14.61617266880205 ITUPSAT1 1 35935U 09051E 26106.29976074 .00000482 00000+0 10970-3 0 9992 2 35935 98.4088 12.1262 0008763 73.0527 287.1633 14.60344922879702 XIWANG-1 (HOPE-1) 1 36122U 09072B 26106.83659394 .00000314 00000+0 93748-3 0 9995 2 36122 100.3973 61.6633 0007795 18.6396 341.5001 13.16439019784937 O/OREOS (USA 219) 1 37224U 10062C 26106.71253698 .00001411 00000+0 13975-3 0 9997 2 37224 71.9702 219.5572 0014944 191.1737 168.9104 14.93494774107467 JUGNU 1 37839U 11058B 26106.60177426 .00000397 00000+0 67894-4 0 9999 2 37839 19.9622 322.5771 0018608 116.4331 265.1469 14.13757398750306 SRMSAT 1 37841U 11058D 26106.23675398 .00000363 00000+0 52901-4 0 9998 2 37841 19.9721 74.4374 0011613 241.6849 237.7724 14.11560608749058 STRAND-1 1 39090U 13009E 26106.78809394 .00000180 00000+0 74764-4 0 9997 2 39090 98.3910 288.5369 0009653 59.3047 300.9090 14.37126236688249 ZACUBE-1 (TSHEPISOSAT) 1 39417U 13066B 26106.47430911 .00002430 00000+0 19290-3 0 9996 2 39417 97.8130 68.4832 0044892 98.0747 262.5573 15.00673871671470 GOMX-1 1 39430U 13066Q 26106.82803810 .00000773 00000+0 12396-3 0 9990 2 39430 97.6536 311.1527 0127565 274.7470 83.9179 14.69235408660904 CUBEBUG-2 (LO-74) 1 39440U 13066AA 26106.42583080 .00001398 00000+0 13513-3 0 9997 2 39440 97.8866 55.1835 0056662 231.2901 128.3245 14.93340613667778 FUNCUBE-1 (AO-73) 1 39444U 13066AE 26106.65557581 .00005674 00000+0 36089-3 0 9997 2 39444 97.8238 76.8736 0038542 54.9890 305.4945 15.08603541670384 UWE-3 1 39446U 13066AG 26106.37736610 .00001434 00000+0 12847-3 0 9996 2 39446 97.8662 62.0811 0049674 163.7462 196.5366 14.96537672668335 UNISAT-6 1 40012U 14033C 26106.67299772 .00001692 00000+0 18787-3 0 9993 2 40012 97.7800 260.5098 0043956 271.1218 88.4963 14.87884173637015 DUCHIFAT-1 1 40021U 14033M 26106.85986558 .00039623 00000+0 59407-3 0 9997 2 40021 98.0553 157.9300 0003191 274.5948 85.4940 15.54834835646199 QB50P1 1 40025U 14033R 26106.57353655 .00005388 00000+0 27398-3 0 9991 2 40025 98.0994 113.4418 0010697 80.1464 280.0975 15.17281249643688 LILACSAT-2 1 40908U 15049K 26106.82879477 .00011051 00000+0 20265-3 0 9992 2 40908 97.4739 141.4037 0008868 112.1942 248.0251 15.49427699586245 FOX-1A (AO-85) 1 40967U 15058D 26106.43478642 .00001517 00000+0 14789-3 0 9993 2 40967 64.7726 110.8330 0128402 80.8252 280.7359 14.90589882104360 CAS-2T & KS-1Q 1 41847U 16066G 26106.45665346 .00000348 00000+0 59010-4 0 9990 2 41847 98.3838 182.8873 0341367 317.0183 40.4792 14.44555786495888 RADFXSAT (FOX-1B) 1 43017U 17073E 26106.60085503 .00004798 00000+0 21557-3 0 9995 2 43017 97.4792 335.1035 0153559 180.5300 179.5793 15.11608323456084 DIWATA-2B 1 43678U 18084H 26106.81084220 .00001198 00000+0 10102-3 0 9994 2 43678 98.1048 300.4178 0013788 15.9131 344.2521 15.00151340407013 ES'HAIL 2 1 43700U 18090A 26106.65948295 .00000151 00000+0 00000+0 0 9990 2 43700 0.0154 245.5706 0001136 161.3276 61.1070 1.00272614 27065 FOX-1CLIFF (AO-95) 1 43770U 18099N 26106.43991084 .00006404 00000+0 25638-3 0 9991 2 43770 97.4438 166.9622 0008748 194.9739 165.1241 15.25376721403803 ITASAT 1 43786U 18099AE 26106.41418573 .00003901 00000+0 19339-3 0 9993 2 43786 97.4092 159.1767 0012352 200.8082 159.2651 15.18260159403532 JY1SAT (JO-97) 1 43803U 18099AX 26106.13633634 .00009640 00000+0 31721-3 0 9994 2 43803 97.4187 168.8347 0007363 127.2922 232.8992 15.31697363404127 UWE-4 1 43880U 18111E 26106.71974515 .00017922 00000+0 41496-3 0 9996 2 43880 97.5863 32.4646 0008586 167.3462 192.8002 15.42477857401292 TIANYAN 01 1 44881U 19093C 26106.85537198 -.00000180 00000+0 -14336-4 0 9999 2 44881 97.7562 180.5793 0012171 291.9880 68.0043 14.86418057342302 RS-44 & BREEZE-KM R/B 1 44909U 19096E 26106.47666898 .00000002 00000+0 -29956-4 0 9997 2 44909 82.5263 20.7099 0216439 288.8111 68.9625 12.79747884294452 SALSAT 1 46495U 20068K 26106.57607044 .00004776 00000+0 17294-3 0 9991 2 46495 97.8862 105.9354 0010820 149.7925 210.3939 15.28882964305946 XW-3 (CAS-9) 1 50466U 21131B 26106.82556955 .00000324 00000+0 11388-3 0 9991 2 50466 98.4950 199.5592 0002863 287.4349 72.6526 14.41297095226273 GREENCUBE (IO-117) 1 53109U 22080E 26106.55228240 -.00000003 00000+0 00000+0 0 9995 2 53109 70.1493 319.6911 0008888 303.6326 56.3485 6.42583340 88102 UMKA 1 (RS40S) 1 57172U 23091G 26106.82317694 .00003580 00000+0 16855-3 0 9995 2 57172 97.5106 165.7720 0012079 340.5018 19.5753 15.20129990154682 CUBESX-HSE 3 (RS42S) 1 57178U 23091N 26106.84399759 .00007570 00000+0 26542-3 0 9992 2 57178 97.5141 171.7162 0009584 313.6413 46.4031 15.29702816155043 MONITOR-3 (RS58S) 1 57180U 23091Q 26106.80507888 .00006006 00000+0 23171-3 0 9993 2 57180 97.5135 169.8443 0010580 321.1949 38.8529 15.26634384154929 MONITOR-4 (RS57S) 1 57182U 23091S 26106.85350394 .00006216 00000+0 23902-3 0 9993 2 57182 97.5128 169.8600 0010547 321.5317 38.5169 15.26729695154932 MONITOR-2 (RS39S) 1 57184U 23091U 26106.83602926 .00003119 00000+0 15504-3 0 9992 2 57184 97.5129 165.5245 0010323 333.5605 26.5100 15.18348979154641 SVYATOBOR 1 (RS60S) 1 57187U 23091X 26106.81729481 .00005093 00000+0 20332-3 0 9997 2 57187 97.5141 170.3297 0008167 313.8237 46.2325 15.25584420154957 VIZARD-METEO (RS38S) 1 57189U 23091Z 26106.80605972 .00009267 00000+0 28299-3 0 9993 2 57189 97.5135 175.1432 0005891 289.5310 70.5296 15.34113657155271 NANOZOND 1 (RS49S) 1 57190U 23091AA 26106.74598946 .01369911 13477-2 12558-2 0 9991 2 57190 97.4901 190.8190 0012093 263.0435 96.9474 16.12626503156317 POLYTECH-UNIVERSE 3 (R*) 1 57191U 23091AB 26106.80534296 .00002864 00000+0 14165-3 0 9999 2 57191 97.5105 164.9995 0015088 348.9934 11.0968 15.18544439154635 UTMN 2 (RS27S) 1 57203U 23091AP 26106.83055499 .00007222 00000+0 24689-3 0 9994 2 57203 97.5133 173.2604 0006695 299.3583 60.6988 15.30568614155158 KUZGTU 1 (RS47S) 1 57217U 23091AV 26106.84916287 .00006775 00000+0 24684-3 0 9998 2 57217 97.5113 170.7570 0009776 317.8969 42.1518 15.28483839155002 SONATE-2 1 59112U 24043Q 26106.35524219 .00022415 00000+0 34275-3 0 9994 2 59112 97.5459 253.2023 0007256 74.0118 286.1934 15.54378993118273 MESAT1 1 60209U 24125G 26106.84910655 .00029805 00000+0 40851-3 0 9998 2 60209 97.2386 323.1897 0012503 88.0925 272.1763 15.57237717100004 OOV-CUBE (TUBSAT-30) 1 60240U 24128F 26106.63346014 .00001336 00000+0 11341-3 0 9996 2 60240 61.9934 80.1562 0051365 120.2991 240.3196 15.02468226 96862 COLIBRI-S (RS67S) 1 61746U 24199M 26106.84805866 .00012464 00000+0 26382-3 0 9999 2 61746 97.3089 340.2321 0010413 135.6895 224.5189 15.45202952127931 HORS 3 (RS81S) 1 61753U 24199U 26106.80744545 .00019425 00000+0 33579-3 0 9999 2 61753 97.3068 341.5907 0008692 136.7594 223.4342 15.50966543128034 HORS 4 (RS82S) 1 61754U 24199V 26106.79826029 .00026210 00000+0 39935-3 0 9998 2 61754 97.3030 342.4449 0008131 132.9952 227.1985 15.54435202128096 HORIZON (RS59S) 1 61757U 24199Y 26106.75582023 .00189287 00000+0 79395-3 0 9998 2 61757 97.2946 347.6267 0006715 125.7126 234.4770 15.85035922128427 ARCTICSAT 1 (RS74S) 1 61762U 24199AD 26106.80173927 .00098615 00000+0 65085-3 0 9994 2 61762 97.2989 346.8201 0007116 117.6688 242.5300 15.75284857128373 SIT-2086 1 61764U 24199AF 26106.84458094 .00013686 00000+0 24916-3 0 9994 2 61764 97.3057 342.2940 0008018 125.8296 234.3702 15.49578231124925 HYPERVIEW 1G (RS66S) 1 61772U 24199AP 26106.83768131 .00049604 00000+0 53007-3 0 9990 2 61772 97.3005 344.0487 0009312 132.3480 227.8570 15.63712431125052 ALTAIR (RS65S) 1 61779U 24199AW 26106.89126439 .00006100 00000+0 17654-3 0 9994 2 61779 97.3118 336.6712 0013760 159.2733 200.9072 15.35873103127709 ASRTU-1 (AO-123) 1 61781U 24199AY 26106.89586420 .00005056 00000+0 15191-3 0 9990 2 61781 97.3090 336.1309 0014618 162.1116 198.0645 15.34768629124524 TUSUR GO (RS78S) 1 61782U 24199AZ 26106.85428065 .00240942 22804-4 86675-3 0 9998 2 61782 97.2899 346.8146 0007037 138.7961 221.3844 15.88667045125242 SAMSAT-IONOSPHERE (RS7*) 1 61784U 24199BB 26106.79668192 .00025163 00000+0 40860-3 0 9991 2 61784 97.3051 341.4489 0011102 140.3995 219.8071 15.52645400128025 RTU MIREA 1 (RS51S) 1 61785U 24199BC 26106.80590904 .00029892 00000+0 44443-3 0 9993 2 61785 97.3041 342.0284 0011235 137.6633 222.5491 15.55046659124915 TEVEL2-4 1 63213U 25052D 26106.25755743 .00009979 00000+0 32065-3 0 9994 2 63213 97.3977 2.6278 0002313 22.9060 337.2284 15.32472769 60621 TEVEL2-5 1 63214U 25052E 26106.46764367 .00009348 00000+0 30188-3 0 9994 2 63214 97.3978 2.8025 0002286 23.2440 336.8905 15.32333286 60658 TEVEL2-6 1 63215U 25052F 26106.21724646 .00009630 00000+0 31130-3 0 9996 2 63215 97.3983 2.5374 0002430 21.7315 338.4030 15.32290903 60615 TEVEL2-1 1 63217U 25052H 26106.61824262 .00009080 00000+0 29786-3 0 9990 2 63217 97.3940 2.6308 0003044 31.1809 328.9613 15.31834512 60668 TEVEL2-3 1 63218U 25052J 26106.22291477 .00009318 00000+0 30522-3 0 9998 2 63218 97.3956 2.2517 0003027 30.4351 329.7066 15.31871706 60600 TEVEL2-2 1 63219U 25052K 26106.22687459 .00009172 00000+0 30087-3 0 9992 2 63219 97.3954 2.2420 0003013 30.4172 329.7244 15.31832627 60605 TEVEL2-9 1 63237U 25052AD 26106.45478581 .00009288 00000+0 32197-3 0 9993 2 63237 97.4013 1.9696 0006659 20.4572 339.6934 15.30021521 60580 TEVEL2-7 1 63238U 25052AE 26106.41941547 .00008829 00000+0 30855-3 0 9996 2 63238 97.4017 1.8743 0006781 20.3975 339.7535 15.29773475 60576 TEVEL2-8 1 63239U 25052AF 26106.62319097 .00008697 00000+0 30415-3 0 9994 2 63239 97.4010 2.0558 0006813 21.2019 338.9503 15.29756621 60606 HADES-ICM 1 63492U 25052BN 26105.68886659 .00169609 00000+0 13067-2 0 9997 2 63492 97.3880 7.8439 0003839 83.5498 276.6202 15.71459742 60929 INNOSAT 16 (RS92S7) 1 64878U 25155C 26106.85235961 .00004495 00000+0 18407-3 0 9999 2 64878 97.4519 74.2273 0012054 49.5992 310.6295 15.24755361 71323 GEOSCAN 6 (RS92S6) 1 64879U 25155D 26106.88201177 .00007069 00000+0 25386-3 0 9999 2 64879 97.4516 75.2715 0009354 46.7256 313.4762 15.28942006 71399 GEOSCAN 1 (RS92S1) 1 64880U 25155E 26106.84088369 .00007680 00000+0 27142-3 0 9994 2 64880 97.4512 75.3297 0009310 47.3311 312.8712 15.29435326 71395 239ALFEROV (RS61S) 1 64881U 25155F 26106.89030081 .00009431 00000+0 31468-3 0 9990 2 64881 97.4515 75.7524 0008959 47.9112 312.2890 15.31241937 71420 GEOSCAN 2 (RS92S2) 1 64890U 25155Q 26106.84578767 .00007860 00000+0 27530-3 0 9992 2 64890 97.4511 75.4619 0008254 37.1356 323.0454 15.29729980 71407 GEOSCAN 5 (RS92S5) 1 64891U 25155R 26106.89218191 .00009516 00000+0 31434-3 0 9998 2 64891 97.4508 75.8680 0008047 54.7162 305.4830 15.31571785 71432 GEOSCAN 4 (RS92S4) 1 64892U 25155S 26106.81646697 .00009514 00000+0 31312-3 0 9990 2 64892 97.4511 75.8245 0008093 55.4179 304.7824 15.31690117 71426 GEOSCAN 3 (RS92S3) 1 64893U 25155T 26106.88858177 .00011050 00000+0 34559-3 0 9990 2 64893 97.4501 76.1686 0007958 57.9986 302.2028 15.33284564 71450 INNOSAT 3 (RS92S0) 1 64894U 25155U 26106.84546125 .00024135 00000+0 61294-3 0 9998 2 64894 97.4463 77.0898 0007594 62.9930 297.2090 15.39619055 71516 KNACKSAT-2 1 67683U 98067XZ 26106.74661487 .00026591 00000+0 39429-3 0 9990 2 67683 51.6301 242.2898 0011587 329.6491 30.3828 15.54969579 10701